�������l�o���
Date,Time,MP-1(��Sv/h),MP-2(��Sv/h),MP-3(��Sv/h),MP-4(��Sv/h),MP-5(��Sv/h),MP-6(��Sv/h),MP-7(��Sv/h),MP-8(��Sv/h),����,����(m/s),���J
2020/02/22,00:00,0.695,0.998,0.655,1.224,0.875,0.398,0.696,0.663,��쐼,2.0,��
2020/02/22,00:10,0.694,0.993,0.653,1.220,0.874,0.399,0.698,0.661,��쐼,1.4,��
2020/02/22,00:20,0.693,0.994,0.654,1.223,0.874,0.399,0.698,0.662,��,0.9,��
2020/02/22,00:30,0.693,0.995,0.656,1.224,0.874,0.399,0.697,0.661,-,CALM,��
2020/02/22,00:40,0.694,0.998,0.653,1.226,0.876,0.398,0.697,0.663,���k��,0.6,��
2020/02/22,00:50,0.694,0.995,0.655,1.225,0.877,0.400,0.697,0.663,-,CALM,��
2020/02/22,01:00,0.695,0.997,0.655,1.225,0.875,0.400,0.695,0.662,�k��,0.6,��
2020/02/22,01:10,0.694,0.995,0.654,1.221,0.876,0.400,0.697,0.663,�k��,0.9,��
2020/02/22,01:20,0.695,0.996,0.655,1.223,0.878,0.400,0.696,0.662,�k�k��,0.6,��
2020/02/22,01:30,0.694,0.995,0.654,1.224,0.875,0.399,0.697,0.662,�k��,1.1,��
2020/02/22,01:40,0.694,0.999,0.655,1.226,0.877,0.399,0.697,0.663,�k��,1.2,�L
2020/02/22,01:50,0.695,0.999,0.656,1.226,0.875,0.400,0.697,0.665,�k��,0.9,�L
2020/02/22,02:00,0.697,0.998,0.656,1.223,0.875,0.399,0.697,0.662,�k,2.2,�L
2020/02/22,02:10,0.692,0.995,0.656,1.226,0.875,0.401,0.698,0.662,�k�k��,2.5,�L
2020/02/22,02:20,0.697,0.999,0.655,1.225,0.875,0.399,0.698,0.663,�k�k��,2.3,�L
2020/02/22,02:30,0.696,0.998,0.656,1.226,0.874,0.400,0.697,0.663,�k,2.6,�L
2020/02/22,02:40,0.694,0.996,0.654,1.226,0.878,0.401,0.697,0.663,�k,2.0,�L
2020/02/22,02:50,0.695,0.996,0.655,1.226,0.876,0.400,0.698,0.663,�k,2.0,�L
2020/02/22,03:00,0.695,0.997,0.654,1.224,0.876,0.400,0.697,0.663,�k,2.3,�L
2020/02/22,03:10,0.695,0.997,0.655,1.228,0.875,0.399,0.698,0.662,�k,2.5,�L
2020/02/22,03:20,0.695,0.996,0.655,1.224,0.876,0.399,0.697,0.663,�k,3.6,�L
2020/02/22,03:30,0.695,0.998,0.656,1.225,0.877,0.399,0.698,0.663,�k�k��,3.5,��
2020/02/22,03:40,0.693,0.997,0.654,1.225,0.876,0.400,0.697,0.663,�k,3.7,��
2020/02/22,03:50,0.694,0.996,0.654,1.225,0.876,0.398,0.698,0.663,�k�k��,3.7,��
2020/02/22,04:00,0.695,0.998,0.655,1.223,0.876,0.400,0.696,0.663,�k�k��,3.9,��
2020/02/22,04:10,0.694,0.997,0.656,1.225,0.876,0.399,0.698,0.664,�k�k��,4.8,�L
2020/02/22,04:20,0.695,0.997,0.655,1.224,0.876,0.400,0.699,0.663,�k�k��,5.0,�L
2020/02/22,04:30,0.694,0.995,0.655,1.225,0.872,0.401,0.698,0.663,�k�k��,4.8,�L
2020/02/22,04:40,0.692,0.993,0.655,1.223,0.870,0.401,0.697,0.662,�k�k��,5.0,�L
2020/02/22,04:50,0.693,0.991,0.654,1.224,0.872,0.401,0.695,0.661,�k�k��,5.1,�L
2020/02/22,05:00,0.691,0.990,0.653,1.221,0.869,0.399,0.694,0.660,�k�k��,5.7,�L
2020/02/22,05:10,0.691,0.991,0.653,1.221,0.869,0.401,0.697,0.660,�k�k��,5.1,�L
2020/02/22,05:20,0.690,0.987,0.652,1.219,0.866,0.400,0.695,0.660,�k�k��,4.7,�L
2020/02/22,05:30,0.689,0.984,0.651,1.219,0.866,0.400,0.694,0.660,�k�k��,4.5,�L
2020/02/22,05:40,0.689,0.983,0.649,1.218,0.865,0.399,0.694,0.660,�k�k��,4.7,�L
2020/02/22,05:50,0.691,0.984,0.651,1.217,0.864,0.399,0.695,0.660,�k�k��,4.4,�L
2020/02/22,06:00,0.689,0.983,0.651,1.216,0.866,0.399,0.694,0.658,�k�k��,4.0,�L
2020/02/22,06:10,0.688,0.983,0.651,1.215,0.864,0.399,0.693,0.660,�k�k��,4.4,�L
2020/02/22,06:20,0.689,0.979,0.648,1.214,0.862,0.399,0.696,0.658,�k�k��,5.3,�L
2020/02/22,06:30,0.686,0.980,0.648,1.213,0.861,0.400,0.696,0.658,�k�k��,6.8,�L
2020/02/22,06:40,0.688,0.976,0.648,1.214,0.861,0.399,0.693,0.659,�k�k��,5.7,�L
2020/02/22,06:50,0.685,0.972,0.647,1.212,0.858,0.397,0.692,0.656,�k�k��,6.5,�L
2020/02/22,07:00,0.687,0.974,0.646,1.211,0.860,0.399,0.693,0.657,�k�k��,5.7,�L
2020/02/22,07:10,0.684,0.974,0.647,1.207,0.858,0.398,0.692,0.656,�k�k��,5.9,�L
2020/02/22,07:20,0.683,0.973,0.644,1.209,0.857,0.399,0.692,0.657,�k�k��,4.6,�L
2020/02/22,07:30,0.683,0.972,0.646,1.207,0.855,0.398,0.691,0.656,�k�k��,6.7,�L
2020/02/22,07:40,0.682,0.968,0.645,1.207,0.854,0.397,0.693,0.657,�k�k��,7.5,�L
2020/02/22,07:50,0.682,0.969,0.643,1.205,0.852,0.398,0.689,0.655,�k�k��,6.7,�L
2020/02/22,08:00,0.682,0.964,0.645,1.203,0.852,0.397,0.690,0.657,�k�k��,7.1,�L
2020/02/22,08:10,0.680,0.963,0.644,1.201,0.852,0.398,0.690,0.654,�k�k��,6.0,�L
2020/02/22,08:20,0.679,0.967,0.643,1.197,0.851,0.397,0.690,0.656,�k�k��,6.2,�L
2020/02/22,08:30,0.681,0.966,0.644,1.201,0.854,0.398,0.690,0.656,�k�k��,4.9,�L
2020/02/22,08:40,0.681,0.967,0.643,1.199,0.852,0.396,0.691,0.656,�k�k��,3.3,��
2020/02/22,08:50,0.681,0.966,0.643,1.200,0.853,0.397,0.691,0.655,�k�k��,2.8,��
2020/02/22,09:00,0.681,0.966,0.645,1.199,0.852,0.396,0.691,0.656,�k�k��,4.0,��
2020/02/22,09:10,0.681,0.965,0.643,1.201,0.852,0.395,0.690,0.655,�k�k��,4.9,��
2020/02/22,09:20,0.682,0.968,0.644,1.199,0.851,0.395,0.690,0.655,�k�k��,4.6,��
2020/02/22,09:30,0.681,0.967,0.643,1.200,0.851,0.396,0.689,0.655,�k�k��,4.1,��
2020/02/22,09:40,0.681,0.969,0.643,1.200,0.852,0.395,0.690,0.655,�k�k��,4.0,��
2020/02/22,09:50,0.681,0.968,0.643,1.200,0.852,0.397,0.691,0.656,�k�k��,3.0,��
2020/02/22,10:00,0.682,0.968,0.642,1.202,0.853,0.395,0.690,0.657,�k,1.8,��
2020/02/22,10:10,0.682,0.968,0.644,1.200,0.851,0.396,0.689,0.656,�k��,2.0,��
2020/02/22,10:20,0.681,0.969,0.644,1.198,0.854,0.395,0.690,0.657,�k�k��,1.2,��
2020/02/22,10:30,0.683,0.970,0.644,1.199,0.855,0.396,0.690,0.657,�k,1.1,��
2020/02/22,10:40,0.680,0.970,0.644,1.201,0.855,0.395,0.688,0.656,�k,2.3,��
2020/02/22,10:50,0.681,0.969,0.643,1.201,0.854,0.396,0.688,0.657,�k�k��,1.7,��
2020/02/22,11:00,0.683,0.970,0.644,1.200,0.855,0.397,0.689,0.657,���k��,0.9,��
2020/02/22,11:10,0.682,0.971,0.645,1.202,0.855,0.395,0.689,0.657,��,2.3,��
2020/02/22,11:20,0.681,0.970,0.643,1.200,0.855,0.395,0.689,0.658,�쓌,3.4,��
2020/02/22,11:30,0.683,0.970,0.644,1.200,0.855,0.395,0.690,0.658,���k��,1.7,��
2020/02/22,11:40,0.684,0.972,0.644,1.200,0.855,0.397,0.689,0.658,���k��,1.7,��
2020/02/22,11:50,0.684,0.971,0.645,1.201,0.854,0.395,0.690,0.657,���k��,1.5,��
2020/02/22,12:00,0.684,0.972,0.644,1.202,0.856,0.396,0.691,0.655,�k��,1.5,��
2020/02/22,12:10,0.682,0.972,0.644,1.201,0.856,0.396,0.691,0.657,���k��,1.5,��
2020/02/22,12:20,0.684,0.974,0.644,1.202,0.856,0.396,0.691,0.657,��,1.4,��
2020/02/22,12:30,0.684,0.972,0.644,1.202,0.858,0.396,0.691,0.657,�쓌,1.5,��
2020/02/22,12:40,0.685,0.972,0.644,1.204,0.856,0.396,0.690,0.659,��,1.7,��
2020/02/22,12:50,0.684,0.974,0.646,1.202,0.857,0.396,0.691,0.659,��,1.7,��
2020/02/22,13:00,0.685,0.970,0.645,1.203,0.857,0.398,0.690,0.657,���쓌,2.2,��
2020/02/22,13:10,0.684,0.972,0.644,1.202,0.856,0.397,0.692,0.657,���쓌,1.5,��
2020/02/22,13:20,0.686,0.975,0.645,1.203,0.860,0.396,0.690,0.658,�쓌,1.5,��
2020/02/22,13:30,0.687,0.973,0.646,1.204,0.857,0.399,0.691,0.658,-,CALM,��
2020/02/22,13:40,0.687,0.973,0.646,1.203,0.858,0.398,0.692,0.658,-,CALM,��
2020/02/22,13:50,0.686,0.974,0.646,1.202,0.858,0.399,0.691,0.657,�쓌,2.0,��
2020/02/22,14:00,0.687,0.976,0.648,1.206,0.859,0.399,0.690,0.658,�쓌,1.1,��
2020/02/22,14:10,0.687,0.975,0.647,1.205,0.858,0.398,0.691,0.657,��쓌,2.3,��
2020/02/22,14:20,0.688,0.976,0.647,1.205,0.860,0.400,0.692,0.660,��,5.9,��
2020/02/22,14:30,0.687,0.976,0.648,1.207,0.861,0.400,0.691,0.658,��,5.2,��
2020/02/22,14:40,0.690,0.976,0.649,1.205,0.860,0.399,0.693,0.659,��,6.7,��
2020/02/22,14:50,0.688,0.976,0.649,1.203,0.861,0.398,0.692,0.659,��,7.4,��
2020/02/22,15:00,0.691,0.977,0.649,1.205,0.860,0.399,0.693,0.659,��,8.3,��
2020/02/22,15:10,0.690,0.975,0.648,1.207,0.860,0.399,0.694,0.659,��,6.7,��
2020/02/22,15:20,0.690,0.978,0.649,1.204,0.860,0.400,0.693,0.660,��,5.6,��
2020/02/22,15:30,0.689,0.978,0.649,1.205,0.858,0.401,0.691,0.659,��쓌,8.4,��
2020/02/22,15:40,0.687,0.976,0.649,1.206,0.858,0.401,0.693,0.659,��쓌,7.7,��
2020/02/22,15:50,0.689,0.976,0.647,1.208,0.859,0.400,0.693,0.660,��,7.8,��
2020/02/22,16:00,0.689,0.979,0.648,1.207,0.859,0.401,0.694,0.660,��,8.3,��
2020/02/22,16:10,0.688,0.977,0.649,1.206,0.858,0.400,0.694,0.660,��,9.4,��
2020/02/22,16:20,0.688,0.976,0.647,1.206,0.861,0.401,0.693,0.660,��,7.7,��
2020/02/22,16:30,0.689,0.976,0.648,1.207,0.858,0.401,0.694,0.659,��,6.0,��
2020/02/22,16:40,0.689,0.976,0.647,1.208,0.860,0.402,0.695,0.659,��,4.4,��
2020/02/22,16:50,0.687,0.981,0.648,1.211,0.856,0.401,0.693,0.660,��,2.6,��
2020/02/22,17:00,0.688,0.981,0.648,1.207,0.857,0.401,0.695,0.660,��쐼,3.3,��
2020/02/22,17:10,0.688,0.980,0.647,1.206,0.859,0.399,0.695,0.660,��쐼,4.2,��
2020/02/22,17:20,0.688,0.980,0.648,1.207,0.860,0.402,0.695,0.660,��,5.7,��
2020/02/22,17:30,0.689,0.979,0.650,1.207,0.861,0.400,0.694,0.660,��,8.3,��
2020/02/22,17:40,0.690,0.983,0.650,1.207,0.860,0.401,0.695,0.660,��쐼,8.2,��
2020/02/22,17:50,0.691,0.979,0.649,1.207,0.862,0.403,0.694,0.659,��,7.6,��
2020/02/22,18:00,0.690,0.981,0.649,1.208,0.861,0.400,0.696,0.659,��,7.5,��
2020/02/22,18:10,0.691,0.979,0.649,1.207,0.860,0.401,0.695,0.660,��,7.4,��
2020/02/22,18:20,0.690,0.980,0.650,1.207,0.862,0.401,0.697,0.659,��,6.7,��
2020/02/22,18:30,0.692,0.981,0.649,1.206,0.862,0.403,0.696,0.658,��,7.6,��
2020/02/22,18:40,0.690,0.980,0.651,1.209,0.863,0.402,0.696,0.660,��쐼,5.8,��
2020/02/22,18:50,0.692,0.980,0.651,1.210,0.863,0.401,0.696,0.659,��쐼,5.7,�L
2020/02/22,19:00,0.692,0.981,0.652,1.207,0.862,0.401,0.695,0.659,��쐼,6.1,�L
2020/02/22,19:10,0.691,0.981,0.648,1.207,0.863,0.402,0.697,0.659,��쐼,7.5,��
2020/02/22,19:20,0.692,0.980,0.649,1.209,0.860,0.400,0.698,0.660,��쐼,8.3,��
2020/02/22,19:30,0.691,0.981,0.650,1.210,0.862,0.403,0.696,0.661,�쐼,7.3,��
2020/02/22,19:40,0.692,0.979,0.650,1.208,0.863,0.401,0.697,0.658,���쐼,6.6,��
2020/02/22,19:50,0.691,0.980,0.650,1.210,0.864,0.401,0.696,0.661,���쐼,7.3,��
2020/02/22,20:00,0.692,0.979,0.651,1.206,0.863,0.401,0.697,0.661,��,9.1,�L
2020/02/22,20:10,0.692,0.980,0.651,1.207,0.862,0.401,0.696,0.660,��,11.3,�L
2020/02/22,20:20,0.692,0.979,0.650,1.210,0.862,0.402,0.695,0.661,��,8.1,�L
2020/02/22,20:30,0.689,0.981,0.649,1.210,0.862,0.401,0.695,0.661,��,9.2,�L
2020/02/22,20:40,0.691,0.981,0.650,1.205,0.861,0.401,0.696,0.661,��,10.2,��
2020/02/22,20:50,0.691,0.978,0.650,1.210,0.862,0.400,0.695,0.660,��,9.7,�L
2020/02/22,21:00,0.689,0.980,0.648,1.211,0.863,0.401,0.694,0.660,��,8.6,�L
2020/02/22,21:10,0.690,0.980,0.651,1.209,0.863,0.401,0.693,0.660,��,12.0,��
2020/02/22,21:20,0.692,0.981,0.649,1.211,0.863,0.401,0.694,0.660,��,15.2,��
2020/02/22,21:30,0.690,0.980,0.650,1.209,0.865,0.400,0.695,0.661,��,11.6,��
2020/02/22,21:40,0.689,0.982,0.651,1.211,0.865,0.401,0.695,0.661,��,13.6,��
2020/02/22,21:50,0.690,0.979,0.651,1.212,0.865,0.401,0.695,0.661,��,11.6,��
2020/02/22,22:00,0.691,0.980,0.651,1.213,0.862,0.401,0.697,0.659,��,9.1,��
2020/02/22,22:10,0.691,0.978,0.651,1.212,0.862,0.401,0.695,0.660,���k��,11.6,��
2020/02/22,22:20,0.690,0.980,0.651,1.212,0.865,0.402,0.696,0.662,���k��,12.2,��
2020/02/22,22:30,0.692,0.979,0.652,1.214,0.863,0.401,0.695,0.661,���k��,10.2,��
2020/02/22,22:40,0.690,0.980,0.651,1.212,0.864,0.401,0.695,0.660,��,8.7,��
2020/02/22,22:50,0.691,0.981,0.651,1.213,0.865,0.402,0.695,0.659,���k��,10.5,��
2020/02/22,23:00,0.692,0.983,0.653,1.215,0.865,0.402,0.695,0.659,��,8.0,��
2020/02/22,23:10,0.690,0.979,0.650,1.214,0.865,0.401,0.695,0.661,���k��,13.3,��
2020/02/22,23:20,0.693,0.981,0.651,1.217,0.866,0.402,0.696,0.661,��,9.9,��
2020/02/22,23:30,0.691,0.982,0.653,1.216,0.866,0.399,0.695,0.662,��,11.0,��
2020/02/22,23:40,0.690,0.982,0.651,1.215,0.865,0.401,0.696,0.661,���k��,12.5,��
2020/02/22,23:50,0.691,0.982,0.653,1.213,0.864,0.401,0.696,0.661,��,12.4,��
